This is the latest recevied weather packets stored in our database for station/object K5SVV. If no packets are shown the sender has not sent any weather packets the latest 10 day(s).
| Time | Temp. | Humidity | Pressure | Rain* | Wind** | Luminosity | Snow |
|---|---|---|---|---|---|---|---|
| 1788618956 | 29.44° C | 71% | 1014.1 hPa | 0 mm | - | 378 W/m² | - |
| 1788618651 | 29.44° C | 71% | 1014 hPa | 0 mm | - | 362 W/m² | - |
| 1788618350 | 29.44° C | 71% | 1014.1 hPa | 0 mm | - | 343 W/m² | - |
| 1788618044 | 28.89° C | 73% | 1014.1 hPa | 0 mm | - | 322 W/m² | - |
| 1788617739 | 28.89° C | 74% | 1014 hPa | 0 mm | - | 281 W/m² | - |
| 1788617435 | 28.89° C | 75% | 1014.2 hPa | 0 mm | - | 295 W/m² | - |
| 1788617130 | 28.33° C | 76% | 1014 hPa | 0 mm | - | 269 W/m² | - |
| 1788616829 | 27.78° C | 78% | 1014.2 hPa | 0 mm | - | 253 W/m² | - |
| 1788616525 | 27.78° C | 80% | 1014 hPa | 0 mm | - | 235 W/m² | - |
| 1788616220 | 27.22° C | 81% | 1013.9 hPa | 0 mm | - | 186 W/m² | - |
| 1788615914 | 26.67° C | 83% | 1013.8 hPa | 0 mm | - | 186 W/m² | - |
| 1788615613 | 26.67° C | 83% | 1013.9 hPa | 0 mm | - | 140 W/m² | - |
| 1788615309 | 26.11° C | 84% | 1014 hPa | 0 mm | - | 124 W/m² | - |
| 1788615008 | 26.11° C | 84% | 1013.8 hPa | 0 mm | - | 98 W/m² | - |
| 1788614702 | 26.11° C | 84% | 1013.6 hPa | 0 mm | - | 43 W/m² | - |
| 1788614397 | 26.11° C | 84% | 1013.5 hPa | 0 mm | - | 47 W/m² | - |
| 1788614093 | 26.11° C | 84% | 1013.5 hPa | 0 mm | - | 69 W/m² | - |
| 1788613788 | 26.11° C | 85% | 1013.5 hPa | 0 mm | - | 81 W/m² | - |
| 1788613487 | 25.56° C | 86% | 1013.2 hPa | 0 mm | - | 75 W/m² | - |
| 1788613182 | 25° C | 87% | 1013.6 hPa | 0 mm | - | 58 W/m² | - |
| 1788612877 | 25° C | 88% | 1013.8 hPa | 0 mm | - | 42 W/m² | - |
| 1788612572 | 24.44° C | 88% | 1013.6 hPa | 0 mm | - | 36 W/m² | - |
| 1788612269 | 24.44° C | 89% | 1013.6 hPa | 0 mm | - | 26 W/m² | - |
| 1788611969 | 24.44° C | 89% | 1013.8 hPa | 0 mm | - | 23 W/m² | - |
| 1788611665 | 24.44° C | 89% | 1013.5 hPa | 0 mm | - | 18 W/m² | - |
* Rain latest hour (hover to see other rain measurements)
** Current wind speed in m/s (hover to see current wind gust speed)